Epoch 2004 Dec. 21.0 TT = JDT 2453360.5
T 2004 Dec. 27.93152 TT MPCW
q 3.3547934 (2000.0) P Q
n 0.06254453 Peri. 194.57344 +0.31488110 +0.89085340
a 6.2855479 Node 94.62264 -0.83461959 +0.42417454
e 0.4662687 Incl. 19.17950 -0.45195137 -0.16265353
P 15.76
From 146 observations 2003 May 30-2019 Mar. 18, mean residual 0".6.